Content
SEND FEEDBACK

Daily
Averages
Monthly
Summary
India

LUCKNOW, INDIA


Home > Asia > India
Elevation: 400 feet     Latitude: 26 45N     Longitude: 080 52E

WEATHER
 
SELECT A DAY
Number of Records: 126,098;   Date Range: 7/2/96 - 7/9/14
 
SHARE

PRINT THIS DATA

[ ← Previous Day ]
WEATHER ALMANAC - JANUARY 20, 2014
[ Next Day → ]
[ °C ]   °F
Weather ElementAverageHighLow
Temperature59.3 °F70 °F (2:30 pm)51.8 °F (7:30 am)
Dewpoint53.7 °F58 °F (5:30 pm)51 °F (8:30 am)
Humidity82.5 %100 % (7:30 am)46 % (2:30 pm)
Barometer30.15 in30.25 in (11:30 am)30.09 in (3:00 pm)
Wind Speed3.1 mph4.6 mph (1:00 am)
Weather ElementAverage
Visibility1.1 mi
Wind DirectionSSW (189.4 °)

Weather ElementTotal
Precipitation---
Heating Degree Days4.1 (Base 65)
Growing Degree Days10.9 (Base 50)
Averaged from 35 records on January 20, 2014
WEATHER CONDITIONS BREAKOUT
WIND DIRECTION BREAKOUT
WEATHER BY HOUR - JANUARY 20, 2014
[ °C ]   °F
Local TimeTemperatureDewpointHumidityBarometerVisibilityWind DirectionWind SpeedGust SpeedPrecipitationEventsConditions
1:00 AM53.6 °F51.8 °F94 %30.12 in1.2 miWSW (250°)4.6 mphMist
2:00 AM53.6 °F51.8 °F94 %30.12 in1.2 miWSW (250°)4.6 mphMist
2:30 AM53.0 °F52.0 °F94 %30.16 in1.0 miWSW (250°)4.6 mphMist
3:00 AM53.6 °F51.8 °F94 %30.12 in1.2 miWest (260°)4.6 mphMist
5:00 AM53.6 °F51.8 °F94 %30.12 in0.3 miWNW (290°)4.6 mphFogFog
5:30 AM53.0 °F52.0 °F96 %30.15 in0.0 miWNW (290°)4.6 mphFogHeavy Fog
5:30 AM53.6 °F51.8 °F94 %30.12 in0.3 miWNW (290°)4.6 mphFogFog
7:30 AM51.8 °F51.8 °F100 %30.18 in0.1 miWNW (290°)2.3 mphFogFog
8:00 AM51.8 °F51.8 °F100 %30.18 in0.1 miVariable2.3 mphFogFog
8:30 AM53.0 °F51.0 °F91 %30.22 in0.0 miNW (320°)3.5 mphFogHeavy Fog
8:30 AM51.8 °F51.8 °F100 %30.18 in0.1 miNW (320°)3.5 mphFogFog
9:00 AM51.8 °F51.8 °F100 %30.21 in0.1 miNW (320°)3.5 mphFogFog
9:30 AM53.6 °F51.8 °F94 %30.21 in0.2 miNW (310°)3.5 mphFogFog
11:30 AM62.0 °F54.0 °F69 %30.25 in1.0 miWSW (240°)4.6 mphMist
11:30 AM60.8 °F57.2 °F88 %30.21 in1.2 miWSW (240°)4.6 mphScattered Clouds
12:00 PM62.6 °F53.6 °F72 %30.21 in1.4 miNNW (330°)3.5 mphScattered Clouds
12:30 PM62.6 °F53.6 °F72 %30.18 in1.6 miNNW (340°)4.6 mphScattered Clouds
1:00 PM66.2 °F55.4 °F68 %30.15 in1.6 miNorth (350°)3.5 mphPartly Cloudy
1:30 PM66.2 °F55.4 °F68 %30.12 in1.6 miEast (90°)3.5 mphPartly Cloudy
2:30 PM70.0 °F54.0 °F46 %30.14 in1.0 miSE (140°)4.6 mphHaze
2:30 PM69.8 °F53.6 °F56 %30.12 in1.9 miSE (140°)4.6 mphHaze
3:00 PM69.8 °F53.6 °F56 %30.09 in2.2 miSSW (210°)3.5 mphHaze
3:30 PM69.8 °F53.6 °F56 %30.09 in2.2 miSE (140°)3.5 mphHaze
4:00 PM69.8 °F53.6 °F56 %30.09 in2.2 miSSW (200°)3.5 mphHaze
4:30 PM68.0 °F53.6 °F60 %30.12 in2.2 miSSW (200°)3.5 mphHaze
5:00 PM66.2 °F55.4 °F68 %30.12 in2.2 miVariable2.3 mphHaze
5:30 PM64.0 °F58.0 °F73 %30.14 in1.0 mi°2.3 mphHaze
6:00 PM62.6 °F57.2 °F82 %30.12 in1.9 miVariable2.3 mphHaze
7:00 PM59.0 °F55.4 °F88 %30.12 in1.6 miVariable2.3 mphMostly Cloudy
8:00 PM59.0 °F55.4 °F88 %30.15 in1.2 miCalmScattered Clouds
8:30 PM57.0 °F56.0 °F93 %30.19 in1.0 miCalmFogPartial Fog
8:30 PM57.2 °F55.4 °F94 %30.15 in0.6 miCalmFogShallow Fog
10:00 PM55.4 °F55.4 °F100 %30.15 inCalmFogFog
11:00 PM55.4 °F53.6 °F94 %30.15 inCalmFogFog
11:30 PM55.0 °F54.0 °F94 %30.20 in0.0 miCalmFogPartial Fog
Hourly data recorded from VILK, located miles away from Lucknow, India







STORIES FROM OUR PARTNERS